Flag for U.S.A. Weather past 2 weeks in Charleston, South Carolina, U.S.A.

Now
81 °F

Sunny.


Feels Like: 87 °F
Forecast: 74 / 91 °F
Wind: 7 mph from North

Location: Charleston Air Force Base Reporting Station

Current Time: Sep 4, 2015 at 9:30:15 AM

Latest Report: Sep 4, 2015 at 8:56 AM


Visibility: 10 mi

Pressure: 29.95 "Hg

Humidity: 82%

Dew point: 75 °F

Location of CharlestonLocation

Historic Weather in Charleston — Graph

°F

Charleston temperature yesterday

Maximum temperature yesterday: 88 °F (at 1:56 PM)
Minimum temperature yesterday: 74 °F (at 4:56 AM)
Average temperature yesterday: 80 °F

Past Weeks' High & Low Weather Summary

 TemperatureHumidityPressure
High93 °F (Aug 25, 2:56 PM)100% (Aug 31, 7:56 AM)30.17 "Hg (Aug 31, 7:56 AM)
Low71 °F (Aug 24, 6:56 AM)44% (Aug 26, 1:56 PM)29.82 "Hg (Aug 25, 4:56 PM)
Average79 °F80%30.00 "Hg
* Reported Aug 20 7:56 AM — Sep 4 7:56 AM, Charleston, Weather by CustomWeather, © 2015

Note: Actual official high and low records may vary slightly from our data, if they occured in-between our weather recording intervals... More about our weather records

Advertising

Charleston weather history for previous 24 hours

 ConditionsComfort  
Time TempWeatherWind HumidityBarometerVisibility
7:56 AM
Fri, Sep 4
78 °FPassing clouds.5 mph90%29.94 "Hg10 mi
6:56 AM76 °FPassing clouds.No wind91%29.93 "Hg10 mi
5:56 AM76 °FPassing clouds.No wind94%29.92 "Hg10 mi
4:56 AM77 °FPassing clouds.No wind90%29.91 "Hg10 mi
3:56 AM77 °FPassing clouds.No wind90%29.91 "Hg10 mi
2:56 AM78 °FPassing clouds.5 mph90%29.91 "Hg10 mi
1:56 AM78 °FPassing clouds.3 mph87%29.91 "Hg10 mi
12:56 AM78 °FPartly cloudy.5 mph87%29.92 "Hg10 mi
11:56 PM
Thu, Sep 3
78 °FPartly cloudy.3 mph87%29.91 "Hg10 mi
10:56 PM78 °FPassing clouds.No wind90%29.90 "Hg10 mi
9:56 PM79 °FPassing clouds.7 mph84%29.90 "Hg10 mi
8:56 PM79 °FPassing clouds.3 mph84%29.91 "Hg10 mi
7:56 PM80 °FBroken clouds.3 mph81%29.90 "Hg10 mi
6:56 PM83 °FBroken clouds.8 mph74%29.89 "Hg10 mi
5:56 PM82 °FBroken clouds.6 mph79%29.88 "Hg10 mi
4:56 PM85 °FBroken clouds.6 mph68%29.89 "Hg10 mi
3:56 PM86 °FBroken clouds.13 mph65%29.90 "Hg10 mi
2:56 PM88 °FBroken clouds.No wind57%29.91 "Hg10 mi
1:56 PM88 °FBroken clouds.5 mph63%29.93 "Hg10 mi
12:56 PM87 °FScattered clouds.No wind57%29.94 "Hg10 mi
11:56 AM86 °FScattered clouds.5 mph63%29.96 "Hg10 mi
10:56 AM85 °FScattered clouds.7 mph68%29.98 "Hg10 mi
9:56 AM82 °FPartly sunny.5 mph72%29.97 "Hg10 mi
Weather by CustomWeather, © 2015

See weather overviewHow to use our weather pages